AIC2643 VABB-VECC

Flight info

Callsign AIC2643
Flight time 2h 9m
Altitude 37000
Route ALBAP2B NONEN Q19 KAMLO W108 NNP G450 JJS JJS2A
Aircraft A20N/M-SDE2E3FGHIRWXY/LB1

Departure

Time 2026-05-08 16:30
Airport Chhatrapati Shivaji Maharaj International Airport (VABB)

Arrival

Time 2026-05-08 18:40
Airport Netaji Subhash Chandra Bose International Airport (VECC)
Time Latitude Longitude Altitude Speed Heading
2026-05-08 16:15 19.09487 72.87714 33 ft 0 kts 309°
2026-05-08 16:22 19.09478 72.87725 32 ft 2 kts 312°
2026-05-08 16:22 19.09466 72.87738 32 ft 2 kts 316°
2026-05-08 16:22 19.09454 72.87749 32 ft 2 kts 322°
2026-05-08 16:23 19.09440 72.87759 33 ft 2 kts 336°
2026-05-08 16:23 19.09424 72.87764 32 ft 2 kts 357°
2026-05-08 16:23 19.09408 72.87761 32 ft 2 kts 23°
2026-05-08 16:23 19.09397 72.87755 32 ft 1 kts 32°
2026-05-08 16:24 19.09395 72.87754 32 ft 0 kts 32°
2026-05-08 16:26 19.09406 72.87761 32 ft 4 kts 28°
2026-05-08 16:26 19.09456 72.87794 33 ft 12 kts 39°
2026-05-08 16:26 19.09454 72.87818 33 ft 2 kts 178°
2026-05-08 16:26 19.09402 72.87803 33 ft 12 kts 200°
2026-05-08 16:27 19.09304 72.87763 33 ft 18 kts 191°
2026-05-08 16:27 19.09177 72.87764 32 ft 18 kts 165°
2026-05-08 16:27 19.09082 72.87814 33 ft 11 kts 138°
2026-05-08 16:27 19.09059 72.87886 33 ft 13 kts 90°
2026-05-08 16:28 19.09060 72.87990 33 ft 11 kts 90°
2026-05-08 16:28 19.09009 72.88049 32 ft 9 kts 169°
2026-05-08 16:28 19.09006 72.88049 32 ft 0 kts 171°
2026-05-08 16:29 19.09005 72.88049 32 ft 2 kts 171°
2026-05-08 16:29 19.08959 72.88054 31 ft 12 kts 179°
2026-05-08 16:29 19.08886 72.87998 31 ft 18 kts 263°
2026-05-08 16:29 19.08885 72.87701 32 ft 81 kts 269°
2026-05-08 16:30 19.08874 72.86780 35 ft 165 kts 269°
2026-05-08 16:30 19.08853 72.85337 425 ft 213 kts 270°
2026-05-08 16:30 19.08882 72.83757 1011 ft 217 kts 275°
2026-05-08 16:30 19.09065 72.82190 1615 ft 208 kts 284°
2026-05-08 16:31 19.09618 72.80735 2001 ft 224 kts 301°
2026-05-08 16:31 19.10457 72.79333 2632 ft 233 kts 310°
2026-05-08 16:31 19.11659 72.78096 3133 ft 249 kts 329°
2026-05-08 16:31 19.13328 72.77488 3660 ft 257 kts 358°
2026-05-08 16:32 19.14916 72.77989 4204 ft 245 kts 38°
2026-05-08 16:32 19.15674 72.78909 4548 ft 255 kts 57°
2026-05-08 16:32 19.16355 72.80653 4818 ft 257 kts 73°
2026-05-08 16:32 19.16685 72.82681 4880 ft 306 kts 81°
2026-05-08 16:33 19.16930 72.85068 5039 ft 344 kts 82°
2026-05-08 16:33 19.17166 72.87555 5350 ft 340 kts 85°
2026-05-08 16:33 19.17240 72.90052 5997 ft 340 kts 89°
2026-05-08 16:33 19.17197 72.92607 6544 ft 345 kts 91°
2026-05-08 16:34 19.17109 72.95120 7065 ft 345 kts 91°
2026-05-08 16:34 19.17091 72.97666 7622 ft 347 kts 89°
2026-05-08 16:34 19.17212 73.00206 8199 ft 347 kts 85°
2026-05-08 16:34 19.17374 73.02769 8690 ft 347 kts 89°
2026-05-08 16:35 19.17741 73.05276 9319 ft 346 kts 72°
2026-05-08 16:35 19.18615 73.07639 10098 ft 350 kts 67°
2026-05-08 16:35 19.19620 73.10007 10901 ft 357 kts 65°
2026-05-08 16:35 19.20701 73.12407 11739 ft 361 kts 64°
2026-05-08 16:36 19.21809 73.14795 12639 ft 367 kts 64°
2026-05-08 16:36 19.22967 73.17254 13498 ft 375 kts 63°
2026-05-08 16:36 19.24133 73.19718 14288 ft 378 kts 63°
2026-05-08 16:36 19.25319 73.22219 15088 ft 383 kts 63°
2026-05-08 16:37 19.26526 73.24768 15912 ft 388 kts 63°
2026-05-08 16:37 19.27738 73.27333 16780 ft 394 kts 63°
2026-05-08 16:37 19.28976 73.29958 17684 ft 399 kts 63°
2026-05-08 16:37 19.30216 73.32591 18527 ft 403 kts 63°
2026-05-08 16:38 19.31458 73.35244 19315 ft 407 kts 62°
2026-05-08 16:38 19.32721 73.37953 20156 ft 409 kts 62°
2026-05-08 16:38 19.33964 73.40627 21017 ft 409 kts 62°
2026-05-08 16:38 19.35227 73.43348 21918 ft 409 kts 61°
2026-05-08 16:39 19.36471 73.46030 22835 ft 408 kts 60°
2026-05-08 16:39 19.37718 73.48725 23722 ft 406 kts 60°
2026-05-08 16:39 19.38963 73.51408 24516 ft 404 kts 60°
2026-05-08 16:39 19.40216 73.54098 25146 ft 407 kts 60°
2026-05-08 16:40 19.41468 73.56780 25616 ft 414 kts 60°
2026-05-08 16:40 19.42762 73.59549 26000 ft 424 kts 60°
2026-05-08 16:40 19.44100 73.62409 26273 ft 437 kts 60°
2026-05-08 16:40 19.45462 73.65319 26555 ft 448 kts 60°
2026-05-08 16:41 19.46857 73.68303 26844 ft 459 kts 60°
2026-05-08 16:41 19.48303 73.71402 27149 ft 468 kts 60°
2026-05-08 16:41 19.49741 73.74491 27449 ft 477 kts 60°
2026-05-08 16:42 19.52716 73.80890 27967 ft 481 kts 60°
2026-05-08 16:42 19.54167 73.84025 28246 ft 479 kts 60°
2026-05-08 16:42 19.55648 73.87230 28527 ft 478 kts 60°
2026-05-08 16:42 19.57087 73.90347 28806 ft 477 kts 60°
2026-05-08 16:43 19.58547 73.93511 29080 ft 476 kts 60°
2026-05-08 16:43 19.60010 73.96682 29374 ft 474 kts 60°
2026-05-08 16:43 19.61447 73.99799 29658 ft 472 kts 60°
2026-05-08 16:43 19.62878 74.02909 29933 ft 471 kts 60°
2026-05-08 16:44 19.64321 74.06040 30163 ft 470 kts 60°
2026-05-08 16:44 19.65753 74.09148 30346 ft 471 kts 60°
2026-05-08 16:44 19.67188 74.12261 30519 ft 472 kts 60°
2026-05-08 16:44 19.68631 74.15394 30719 ft 471 kts 60°
2026-05-08 16:45 19.70062 74.18502 30901 ft 470 kts 60°
2026-05-08 16:45 19.71484 74.21593 31098 ft 470 kts 60°
2026-05-08 16:45 19.72944 74.24769 31297 ft 471 kts 60°
2026-05-08 16:45 19.74365 74.27859 31495 ft 471 kts 60°
2026-05-08 16:46 19.75803 74.30989 31698 ft 471 kts 60°
2026-05-08 16:46 19.77242 74.34123 31902 ft 471 kts 60°
2026-05-08 16:46 19.78707 74.37311 32129 ft 479 kts 60°
2026-05-08 16:46 19.80158 74.40468 32352 ft 486 kts 60°
2026-05-08 16:47 19.81660 74.43735 32607 ft 493 kts 60°
2026-05-08 16:47 19.83163 74.47010 32862 ft 498 kts 60°
2026-05-08 16:47 19.84695 74.50352 33122 ft 498 kts 61°
2026-05-08 16:47 19.86209 74.53662 33380 ft 495 kts 61°
2026-05-08 16:48 19.87689 74.56900 33627 ft 492 kts 61°
2026-05-08 16:48 19.89194 74.60196 33880 ft 492 kts 61°
2026-05-08 16:48 19.90685 74.63464 34106 ft 493 kts 61°
2026-05-08 16:48 19.92170 74.66719 34305 ft 494 kts 61°
2026-05-08 16:49 19.93688 74.70048 34535 ft 495 kts 61°
2026-05-08 16:49 19.95178 74.73318 34766 ft 495 kts 61°
2026-05-08 16:49 19.96683 74.76620 34899 ft 497 kts 61°
2026-05-08 16:49 19.98179 74.79906 35009 ft 498 kts 61°
2026-05-08 16:50 19.99690 74.83229 35120 ft 496 kts 61°
2026-05-08 16:50 20.01195 74.86541 35230 ft 495 kts 61°
2026-05-08 16:50 20.02699 74.89853 35348 ft 496 kts 61°
2026-05-08 16:50 20.04179 74.93115 35461 ft 496 kts 61°
2026-05-08 16:51 20.05686 74.96436 35568 ft 498 kts 61°
2026-05-08 16:51 20.07196 74.99761 35688 ft 498 kts 62°
2026-05-08 16:51 20.08686 75.03051 35801 ft 497 kts 62°
2026-05-08 16:51 20.10205 75.06403 35907 ft 497 kts 62°
2026-05-08 16:52 20.11690 75.09685 36018 ft 497 kts 62°
2026-05-08 16:52 20.13197 75.13015 36130 ft 497 kts 62°
2026-05-08 16:52 20.14695 75.16328 36239 ft 498 kts 62°
2026-05-08 16:52 20.16210 75.19681 36354 ft 499 kts 62°
2026-05-08 16:53 20.19205 75.26317 36574 ft 499 kts 62°
2026-05-08 16:53 20.20712 75.29664 36687 ft 498 kts 62°
2026-05-08 16:53 20.22213 75.32998 36793 ft 498 kts 62°
2026-05-08 16:54 20.25196 75.39639 36869 ft 501 kts 62°
2026-05-08 16:54 20.28182 75.46358 36874 ft 501 kts 65°
2026-05-08 16:55 20.30516 75.53373 36897 ft 501 kts 70°
2026-05-08 16:55 20.32527 75.60472 36918 ft 504 kts 72°
2026-05-08 16:56 20.34462 75.67619 36940 ft 504 kts 72°
2026-05-08 16:56 20.36369 75.74787 36959 ft 503 kts 72°
2026-05-08 16:57 20.38270 75.81986 36991 ft 504 kts 72°
2026-05-08 16:57 20.40155 75.89159 37011 ft 504 kts 72°
2026-05-08 16:58 20.42046 75.96383 37036 ft 504 kts 72°
2026-05-08 16:58 20.43983 76.03529 37057 ft 503 kts 72°
2026-05-08 16:59 20.45969 76.10716 37077 ft 504 kts 71°
2026-05-08 16:59 20.47955 76.17885 37104 ft 504 kts 71°
2026-05-08 17:00 20.49946 76.25087 37118 ft 504 kts 72°
2026-05-08 17:00 20.51915 76.32231 37132 ft 504 kts 72°
2026-05-08 17:01 20.53891 76.39422 37154 ft 506 kts 72°
2026-05-08 17:01 20.55862 76.46608 37135 ft 507 kts 72°
2026-05-08 17:02 20.57842 76.53848 37041 ft 506 kts 72°
2026-05-08 17:02 20.59800 76.61030 37056 ft 503 kts 72°
2026-05-08 17:03 20.60777 76.64615 37231 ft 503 kts 72°
2026-05-08 17:03 20.61755 76.68206 37135 ft 510 kts 72°
2026-05-08 17:03 20.63744 76.75525 37077 ft 507 kts 72°
2026-05-08 17:04 20.65690 76.82699 37082 ft 506 kts 72°
2026-05-08 17:04 20.67648 76.89933 37111 ft 508 kts 72°
2026-05-08 17:05 20.69610 76.97190 37181 ft 508 kts 72°
2026-05-08 17:05 20.71557 77.04407 37258 ft 508 kts 72°
2026-05-08 17:06 20.73513 77.11676 37330 ft 508 kts 72°
2026-05-08 17:06 20.75461 77.18919 37405 ft 509 kts 72°
2026-05-08 17:07 20.77418 77.26218 37478 ft 508 kts 72°
2026-05-08 17:07 20.79351 77.33442 37551 ft 508 kts 72°
2026-05-08 17:08 20.81294 77.40722 37614 ft 509 kts 72°
2026-05-08 17:08 20.83229 77.47991 37685 ft 509 kts 72°
2026-05-08 17:09 20.85163 77.55248 37760 ft 508 kts 72°
2026-05-08 17:09 20.87123 77.62461 37793 ft 510 kts 72°
2026-05-08 17:10 20.89132 77.69815 37752 ft 510 kts 72°
2026-05-08 17:10 20.91080 77.77068 37713 ft 510 kts 75°
2026-05-08 17:11 20.92422 77.84533 37675 ft 511 kts 79°
2026-05-08 17:11 20.93505 77.92050 37649 ft 513 kts 80°
2026-05-08 17:12 20.94529 77.99588 37606 ft 513 kts 81°
2026-05-08 17:12 20.95533 78.07146 37573 ft 513 kts 81°
2026-05-08 17:13 20.96531 78.14717 37535 ft 514 kts 81°
2026-05-08 17:13 20.97528 78.22318 37507 ft 515 kts 81°
2026-05-08 17:14 20.98517 78.29892 37477 ft 515 kts 81°
2026-05-08 17:14 20.99503 78.37467 37446 ft 515 kts 81°
2026-05-08 17:15 21.00489 78.45074 37481 ft 515 kts 81°
2026-05-08 17:15 21.01471 78.52662 37545 ft 516 kts 81°
2026-05-08 17:16 21.02454 78.60295 37612 ft 517 kts 81°
2026-05-08 17:16 21.03425 78.67863 37670 ft 516 kts 81°
2026-05-08 17:17 21.04396 78.75474 37726 ft 516 kts 81°
2026-05-08 17:17 21.05366 78.83087 37784 ft 517 kts 81°
2026-05-08 17:18 21.06173 78.89455 37844 ft 516 kts 81°
2026-05-08 17:18 21.07291 78.98325 37890 ft 516 kts 81°
2026-05-08 17:19 21.08257 79.04634 37933 ft 516 kts 75°
2026-05-08 17:19 21.10104 79.12104 37989 ft 516 kts 72°
2026-05-08 17:20 21.12088 79.19436 38049 ft 515 kts 72°
2026-05-08 17:20 21.14126 79.26814 38091 ft 515 kts 72°
2026-05-08 17:21 21.16163 79.34163 38152 ft 517 kts 72°
2026-05-08 17:21 21.18199 79.41515 38209 ft 516 kts 72°
2026-05-08 17:22 21.20243 79.48917 38259 ft 516 kts 72°
2026-05-08 17:22 21.22267 79.56259 38315 ft 517 kts 72°
2026-05-08 17:23 21.24299 79.63647 38367 ft 518 kts 72°
2026-05-08 17:23 21.26340 79.71082 38409 ft 517 kts 72°
2026-05-08 17:24 21.28360 79.78454 38456 ft 517 kts 72°
2026-05-08 17:24 21.30396 79.85900 38496 ft 518 kts 72°
2026-05-08 17:25 21.32413 79.93293 38550 ft 519 kts 72°
2026-05-08 17:25 21.34429 80.00697 38595 ft 518 kts 72°
2026-05-08 17:26 21.36456 80.08150 38630 ft 517 kts 72°
2026-05-08 17:26 21.38463 80.15544 38666 ft 518 kts 72°
2026-05-08 17:27 21.40468 80.22947 38704 ft 518 kts 72°
2026-05-08 17:27 21.42483 80.30403 38732 ft 518 kts 72°
2026-05-08 17:28 21.44478 80.37804 38767 ft 517 kts 72°
2026-05-08 17:28 21.46476 80.45235 38805 ft 518 kts 72°
2026-05-08 17:29 21.48468 80.52664 38846 ft 518 kts 72°
2026-05-08 17:29 21.50452 80.60070 38882 ft 518 kts 72°
2026-05-08 17:30 21.52449 80.67492 38918 ft 518 kts 72°
2026-05-08 17:30 21.54460 80.74974 38956 ft 519 kts 73°
2026-05-08 17:31 21.56453 80.82412 38897 ft 521 kts 73°
2026-05-08 17:31 21.58444 80.89863 38821 ft 519 kts 73°
2026-05-08 17:32 21.60428 80.97312 38747 ft 519 kts 73°
2026-05-08 17:32 21.62413 81.04782 38682 ft 521 kts 73°
2026-05-08 17:33 21.64410 81.12315 38602 ft 522 kts 73°
2026-05-08 17:33 21.66389 81.19801 38520 ft 522 kts 73°
2026-05-08 17:34 21.68366 81.27301 38432 ft 522 kts 73°
2026-05-08 17:34 21.70398 81.34807 38347 ft 523 kts 72°
2026-05-08 17:35 21.72457 81.42295 38265 ft 523 kts 72°
2026-05-08 17:35 21.74522 81.49787 38187 ft 523 kts 73°
2026-05-08 17:36 21.76591 81.57316 38111 ft 523 kts 73°
2026-05-08 17:36 21.78587 81.64803 38036 ft 524 kts 74°
2026-05-08 17:37 21.80487 81.72369 37965 ft 524 kts 75°
2026-05-08 17:37 21.82359 81.79998 37886 ft 525 kts 75°
2026-05-08 17:38 21.84203 81.87580 37820 ft 526 kts 75°
2026-05-08 17:38 21.86053 81.95227 37751 ft 526 kts 75°
2026-05-08 17:39 21.87889 82.02833 37686 ft 527 kts 75°
2026-05-08 17:39 21.89728 82.10465 37616 ft 527 kts 75°
2026-05-08 17:40 21.91561 82.18096 37553 ft 527 kts 75°
2026-05-08 17:40 21.93396 82.25759 37495 ft 528 kts 75°
2026-05-08 17:41 21.95220 82.33401 37426 ft 528 kts 75°
2026-05-08 17:41 21.97043 82.41056 37358 ft 528 kts 75°
2026-05-08 17:42 21.98858 82.48703 37293 ft 528 kts 75°
2026-05-08 17:42 22.00681 82.56402 37233 ft 529 kts 76°
2026-05-08 17:43 22.02490 82.64063 37170 ft 530 kts 75°
2026-05-08 17:43 22.04305 82.71769 37112 ft 529 kts 76°
2026-05-08 17:44 22.06121 82.79495 37054 ft 530 kts 76°
2026-05-08 17:44 22.07923 82.87177 36993 ft 531 kts 76°
2026-05-08 17:45 22.08821 82.91014 37214 ft 525 kts 76°
2026-05-08 17:45 22.09719 82.94852 37449 ft 525 kts 76°
2026-05-08 17:45 22.10612 82.98678 37565 ft 529 kts 76°
2026-05-08 17:45 22.11511 83.02533 37614 ft 533 kts 76°
2026-05-08 17:46 22.13317 83.10290 37642 ft 531 kts 76°
2026-05-08 17:46 22.15091 83.17929 37646 ft 529 kts 76°
2026-05-08 17:47 22.16891 83.25707 37628 ft 531 kts 76°
2026-05-08 17:47 22.18374 83.32133 37621 ft 531 kts 76°
2026-05-08 17:48 22.20447 83.41144 37623 ft 531 kts 76°
2026-05-08 17:48 22.22224 83.48892 37624 ft 532 kts 76°
2026-05-08 17:49 22.23991 83.56613 37635 ft 532 kts 76°
2026-05-08 17:49 22.25764 83.64400 37649 ft 531 kts 76°
2026-05-08 17:50 22.27519 83.72124 37655 ft 532 kts 76°
2026-05-08 17:50 22.29276 83.79892 37662 ft 533 kts 76°
2026-05-08 17:51 22.31023 83.87645 37662 ft 532 kts 77°
2026-05-08 17:51 22.32794 83.95399 37664 ft 532 kts 76°
2026-05-08 17:52 22.34591 84.03165 37670 ft 533 kts 76°
2026-05-08 17:53 22.37292 84.14820 37674 ft 533 kts 76°
2026-05-08 17:53 22.39087 84.22594 37674 ft 533 kts 76°
2026-05-08 17:54 22.40869 84.30332 37675 ft 534 kts 76°
2026-05-08 17:54 22.42657 84.38120 37680 ft 534 kts 76°
2026-05-08 17:55 22.44447 84.45937 37689 ft 534 kts 76°
2026-05-08 17:55 22.46228 84.53742 37690 ft 534 kts 77°
2026-05-08 17:56 22.48000 84.61530 37711 ft 534 kts 77°
2026-05-08 17:56 22.49769 84.69329 37715 ft 534 kts 77°
2026-05-08 17:57 22.51529 84.77115 37720 ft 534 kts 77°
2026-05-08 17:57 22.53281 84.84980 37724 ft 534 kts 77°
2026-05-08 17:58 22.54984 84.92782 37729 ft 534 kts 77°
2026-05-08 17:58 22.56680 85.00623 37731 ft 535 kts 77°
2026-05-08 17:59 22.58361 85.08430 37732 ft 534 kts 77°
2026-05-08 17:59 22.60043 85.16271 37730 ft 534 kts 77°
2026-05-08 18:00 22.60873 85.20145 37739 ft 535 kts 78°
2026-05-08 18:00 22.64224 85.35852 37752 ft 535 kts 78°
2026-05-08 18:01 22.65892 85.43699 37759 ft 535 kts 78°
2026-05-08 18:01 22.67556 85.51557 37758 ft 535 kts 78°
2026-05-08 18:02 22.68937 85.58089 37751 ft 534 kts 78°
2026-05-08 18:02 22.70024 85.63240 37751 ft 518 kts 78°
2026-05-08 18:02 22.70818 85.67002 37597 ft 502 kts 78°
2026-05-08 18:03 22.71583 85.70627 37420 ft 497 kts 78°
2026-05-08 18:03 22.72354 85.74294 37230 ft 498 kts 78°
2026-05-08 18:03 22.73126 85.77974 37055 ft 500 kts 78°
2026-05-08 18:03 22.73889 85.81614 36880 ft 501 kts 78°
2026-05-08 18:04 22.74657 85.85287 36645 ft 492 kts 78°
2026-05-08 18:04 22.75156 85.87667 36469 ft 487 kts 78°
2026-05-08 18:04 22.76146 85.92407 36086 ft 485 kts 78°
2026-05-08 18:04 22.76642 85.94784 35901 ft 484 kts 78°
2026-05-08 18:05 22.77389 85.98372 35630 ft 483 kts 78°
2026-05-08 18:05 22.78121 86.01886 35364 ft 481 kts 78°
2026-05-08 18:05 22.78854 86.05421 35099 ft 479 kts 78°
2026-05-08 18:05 22.79822 86.10090 34758 ft 477 kts 79°
2026-05-08 18:06 22.80311 86.12460 34562 ft 476 kts 79°
2026-05-08 18:06 22.80821 86.15953 34294 ft 472 kts 90°
2026-05-08 18:06 22.80888 86.19495 34033 ft 469 kts 94°
2026-05-08 18:06 22.80820 86.23020 33750 ft 466 kts 95°
2026-05-08 18:07 22.80701 86.26540 33449 ft 463 kts 96°
2026-05-08 18:07 22.80558 86.29975 33153 ft 460 kts 97°
2026-05-08 18:07 22.80396 86.33464 32773 ft 460 kts 97°
2026-05-08 18:07 22.80227 86.36907 32397 ft 457 kts 97°
2026-05-08 18:08 22.80052 86.40355 32007 ft 454 kts 97°
2026-05-08 18:08 22.79874 86.43765 31570 ft 450 kts 97°
2026-05-08 18:08 22.79699 86.47101 31124 ft 447 kts 97°
2026-05-08 18:08 22.79522 86.50454 30675 ft 445 kts 98°
2026-05-08 18:09 22.79344 86.53803 30235 ft 442 kts 98°
2026-05-08 18:09 22.79165 86.57119 29752 ft 439 kts 98°
2026-05-08 18:09 22.78984 86.60397 29232 ft 434 kts 98°
2026-05-08 18:09 22.78802 86.63641 28717 ft 428 kts 98°
2026-05-08 18:10 22.78624 86.66797 28224 ft 422 kts 97°
2026-05-08 18:10 22.78443 86.69977 27715 ft 416 kts 97°
2026-05-08 18:10 22.78264 86.73079 27199 ft 411 kts 97°
2026-05-08 18:10 22.78090 86.76126 26722 ft 405 kts 97°
2026-05-08 18:11 22.77916 86.79160 26246 ft 399 kts 97°
2026-05-08 18:11 22.77743 86.82150 25785 ft 393 kts 97°
2026-05-08 18:11 22.77574 86.85088 25323 ft 388 kts 96°
2026-05-08 18:11 22.77408 86.87962 24889 ft 382 kts 96°
2026-05-08 18:12 22.77242 86.90827 24442 ft 377 kts 96°
2026-05-08 18:12 22.77084 86.93603 24433 ft 357 kts 96°
2026-05-08 18:12 22.76933 86.96280 23966 ft 358 kts 96°
2026-05-08 18:12 22.76781 86.98905 23615 ft 351 kts 96°
2026-05-08 18:13 22.76626 87.01538 22986 ft 351 kts 96°
2026-05-08 18:13 22.76461 87.04237 21749 ft 370 kts 96°
2026-05-08 18:13 22.76281 87.07081 20782 ft 379 kts 95°
2026-05-08 18:13 22.76107 87.09879 19935 ft 362 kts 95°
2026-05-08 18:14 22.75950 87.12463 19153 ft 332 kts 94°
2026-05-08 18:14 22.75801 87.14944 18643 ft 331 kts 94°
2026-05-08 18:14 22.75651 87.17464 18015 ft 335 kts 94°
2026-05-08 18:14 22.75504 87.19939 17318 ft 330 kts 93°
2026-05-08 18:15 22.75359 87.22413 16625 ft 325 kts 93°
2026-05-08 18:15 22.75218 87.24842 15954 ft 321 kts 93°
2026-05-08 18:15 22.75125 87.26443 15516 ft 319 kts 93°
2026-05-08 18:15 22.75065 87.27456 15232 ft 317 kts 93°
2026-05-08 18:16 22.74929 87.29797 14739 ft 312 kts 93°
2026-05-08 18:16 22.74791 87.32127 14239 ft 311 kts 93°
2026-05-08 18:16 22.74653 87.34465 13826 ft 307 kts 93°
2026-05-08 18:16 22.74517 87.36765 13440 ft 305 kts 93°
2026-05-08 18:17 22.74386 87.38973 13054 ft 289 kts 93°
2026-05-08 18:17 22.74254 87.41207 12684 ft 300 kts 93°
2026-05-08 18:17 22.74120 87.43461 12281 ft 296 kts 93°
2026-05-08 18:17 22.73986 87.45678 11885 ft 292 kts 93°
2026-05-08 18:18 22.73853 87.47858 11500 ft 288 kts 93°
2026-05-08 18:18 22.73724 87.49992 11131 ft 284 kts 93°
2026-05-08 18:18 22.73595 87.52117 10761 ft 281 kts 93°
2026-05-08 18:18 22.73469 87.54201 10404 ft 277 kts 93°
2026-05-08 18:19 22.73343 87.56279 10054 ft 274 kts 93°
2026-05-08 18:19 22.73218 87.58334 9704 ft 271 kts 93°
2026-05-08 18:19 22.73097 87.60346 9335 ft 271 kts 93°
2026-05-08 18:19 22.72973 87.62400 8969 ft 271 kts 93°
2026-05-08 18:20 22.72850 87.64422 8617 ft 271 kts 94°
2026-05-08 18:20 22.72726 87.66457 8253 ft 269 kts 94°
2026-05-08 18:20 22.72602 87.68472 7905 ft 267 kts 94°
2026-05-08 18:20 22.72478 87.70481 7570 ft 265 kts 94°
2026-05-08 18:21 22.72357 87.72447 7294 ft 259 kts 94°
2026-05-08 18:21 22.72238 87.74350 7063 ft 263 kts 94°
2026-05-08 18:21 22.72110 87.76372 6827 ft 261 kts 94°
2026-05-08 18:22 22.72060 87.77177 6738 ft 260 kts 94°
2026-05-08 18:22 22.71937 87.79137 6517 ft 260 kts 95°
2026-05-08 18:22 22.71813 87.81094 6296 ft 259 kts 95°
2026-05-08 18:22 22.71691 87.83018 6068 ft 258 kts 95°
2026-05-08 18:23 22.71567 87.84977 5841 ft 257 kts 95°
2026-05-08 18:23 22.71444 87.86881 5605 ft 256 kts 95°
2026-05-08 18:23 22.71321 87.88800 5490 ft 254 kts 95°
2026-05-08 18:23 22.71197 87.90728 5389 ft 255 kts 95°
2026-05-08 18:24 22.71074 87.92633 5290 ft 248 kts 95°
2026-05-08 18:24 22.70960 87.94408 5202 ft 233 kts 95°
2026-05-08 18:24 22.70848 87.96160 5128 ft 233 kts 95°
2026-05-08 18:24 22.70734 87.97915 5052 ft 232 kts 95°
2026-05-08 18:25 22.70622 87.99660 4978 ft 230 kts 95°
2026-05-08 18:25 22.70511 88.01373 4907 ft 231 kts 95°
2026-05-08 18:25 22.70398 88.03114 4839 ft 230 kts 95°
2026-05-08 18:25 22.70286 88.04832 4772 ft 230 kts 95°
2026-05-08 18:26 22.70173 88.06566 4703 ft 230 kts 95°
2026-05-08 18:26 22.70061 88.08301 4634 ft 229 kts 95°
2026-05-08 18:26 22.69949 88.10022 4564 ft 228 kts 95°
2026-05-08 18:26 22.69839 88.11707 4439 ft 227 kts 94°
2026-05-08 18:27 22.69729 88.13422 4315 ft 227 kts 95°
2026-05-08 18:27 22.69655 88.14548 4236 ft 226 kts 95°
2026-05-08 18:27 22.69509 88.16803 4122 ft 216 kts 95°
2026-05-08 18:27 22.69410 88.18333 4051 ft 202 kts 95°
2026-05-08 18:28 22.69327 88.19876 3980 ft 203 kts 88°
2026-05-08 18:28 22.69868 88.21210 3916 ft 200 kts 40°
2026-05-08 18:28 22.71105 88.21876 3848 ft 198 kts 16°
2026-05-08 18:28 22.72417 88.22246 3775 ft 186 kts 10°
2026-05-08 18:29 22.73683 88.22509 3682 ft 188 kts 10°
2026-05-08 18:29 22.74944 88.22882 3627 ft 186 kts 17°
2026-05-08 18:29 22.76154 88.23392 3594 ft 188 kts 22°
2026-05-08 18:29 22.77343 88.23995 3572 ft 188 kts 25°
2026-05-08 18:30 22.78507 88.24652 3544 ft 188 kts 27°
2026-05-08 18:30 22.79624 88.25365 3538 ft 189 kts 32°
2026-05-08 18:30 22.80691 88.26213 3536 ft 189 kts 38°
2026-05-08 18:30 22.81697 88.27137 3532 ft 189 kts 41°
2026-05-08 18:31 22.82653 88.28095 3539 ft 189 kts 43°
2026-05-08 18:31 22.83600 88.29101 3450 ft 190 kts 46°
2026-05-08 18:31 22.84460 88.30189 3339 ft 189 kts 52°
2026-05-08 18:31 22.85229 88.31346 3226 ft 188 kts 56°
2026-05-08 18:32 22.85931 88.32532 3099 ft 187 kts 59°
2026-05-08 18:32 22.86602 88.33752 2980 ft 187 kts 60°
2026-05-08 18:32 22.87232 88.34974 2803 ft 188 kts 63°
2026-05-08 18:32 22.87807 88.36244 2615 ft 186 kts 66°
2026-05-08 18:33 22.88279 88.37533 2415 ft 184 kts 74°
2026-05-08 18:33 22.88581 88.38886 2225 ft 184 kts 80°
2026-05-08 18:33 22.88783 88.40237 2046 ft 180 kts 83°
2026-05-08 18:33 22.88941 88.41584 1964 ft 181 kts 84°
2026-05-08 18:34 22.89082 88.42947 1924 ft 181 kts 85°
2026-05-08 18:34 22.89210 88.44302 1910 ft 181 kts 86°
2026-05-08 18:34 22.89286 88.45653 1902 ft 181 kts 89°
2026-05-08 18:34 22.89112 88.46991 1906 ft 178 kts 122°
2026-05-08 18:35 22.88156 88.47687 1724 ft 166 kts 179°
2026-05-08 18:35 22.87030 88.47563 1700 ft 166 kts 189°
2026-05-08 18:35 22.85881 88.47353 1637 ft 166 kts 190°
2026-05-08 18:35 22.84753 88.47144 1567 ft 167 kts 190°
2026-05-08 18:36 22.83616 88.46945 1532 ft 163 kts 189°
2026-05-08 18:36 22.82470 88.46766 1499 ft 166 kts 188°
2026-05-08 18:36 22.81331 88.46612 1423 ft 166 kts 187°
2026-05-08 18:36 22.80173 88.46472 1347 ft 167 kts 186°
2026-05-08 18:37 22.79015 88.46345 1223 ft 166 kts 185°
2026-05-08 18:37 22.77938 88.46282 903 ft 157 kts 183°
2026-05-08 18:37 22.76804 88.46227 807 ft 165 kts 183°
2026-05-08 18:37 22.75635 88.46157 856 ft 174 kts 185°
2026-05-08 18:38 22.74418 88.46031 949 ft 180 kts 186°
2026-05-08 18:38 22.73156 88.45892 1046 ft 183 kts 186°
2026-05-08 18:38 22.71915 88.45743 1055 ft 174 kts 187°
2026-05-08 18:38 22.70717 88.45579 944 ft 172 kts 188°
2026-05-08 18:39 22.69601 88.45407 708 ft 158 kts 190°
2026-05-08 18:39 22.68496 88.45192 409 ft 162 kts 191°
2026-05-08 18:39 22.67375 88.45024 107 ft 163 kts 188°
2026-05-08 18:39 22.66327 88.44879 29 ft 133 kts 185°
2026-05-08 18:40 22.66282 88.44874 30 ft 130 kts 185°
2026-05-08 18:40 22.65679 88.44813 30 ft 39 kts 194°
2026-05-08 18:40 22.65487 88.44776 28 ft 24 kts 187°
2026-05-08 18:40 22.65343 88.44760 28 ft 18 kts 186°
2026-05-08 18:41 22.65239 88.44750 27 ft 13 kts 184°
2026-05-08 18:41 22.65160 88.44742 30 ft 10 kts 187°
2026-05-08 18:41 22.65098 88.44734 29 ft 8 kts 187°
2026-05-08 18:41 22.65038 88.44725 25 ft 9 kts 189°
2026-05-08 18:42 22.64972 88.44702 28 ft 10 kts 209°
2026-05-08 18:42 22.64912 88.44663 25 ft 8 kts 204°
2026-05-08 18:42 22.64899 88.44650 28 ft 5 kts 221°
2026-05-08 18:42 22.64849 88.44611 25 ft 12 kts 213°
2026-05-08 18:43 22.64777 88.44555 28 ft 8 kts 230°
2026-05-08 18:43 22.64736 88.44530 27 ft 17 kts 211°
2026-05-08 18:43 22.64631 88.44469 30 ft 17 kts 191°
2026-05-08 18:43 22.64459 88.44449 27 ft 32 kts 187°
2026-05-08 18:44 22.64237 88.44420 28 ft 31 kts 185°
2026-05-08 18:44 22.64186 88.44372 27 ft 5 kts 246°
2026-05-08 18:44 22.64176 88.44347 27 ft 2 kts 245°
2026-05-08 18:44 22.64174 88.44342 27 ft 0 kts 247°
2026-05-08 18:45 22.64171 88.44324 27 ft 4 kts 266°
2026-05-08 18:45 22.64172 88.44291 27 ft 6 kts 265°
2026-05-08 18:45 22.64171 88.44240 27 ft 7 kts 274°
2026-05-08 18:45 22.64177 88.44189 27 ft 7 kts 274°
2026-05-08 18:46 22.64172 88.44139 27 ft 6 kts 237°
2026-05-08 18:46 22.64150 88.44101 27 ft 6 kts 257°
2026-05-08 18:46 22.64153 88.44058 27 ft 6 kts 278°
2026-05-08 18:46 22.64154 88.44045 27 ft 0 kts 277°